Вернуться в каталог

THORAD AGENA D DEB

АктивенPO
NORAD 5220·DEBRIS·🇺🇸 United States

Запущен Apr 8, 1970 с Vandenberg Space Force Base

Loading…

Ближайшие Пролёты (ближайшие 24 часа)

TLE

СвежийSource: Space-Track

Эпоха: Sep 12, 2026, 22:37 UTC

1  5220U 70025KG  26255.94292778  .00000113  00000-0  39987-3 0  9995
2  5220  99.8309 128.7789 0380740 169.3227 205.6346 12.92638950642837

Отслеживайте THORAD AGENA D DEB в реальном времени с AllMySat

Download on the App Store